Location: Pic du Midi - T1M
(42.9366°N, 0.1426°E)
Time: 18:57:33
(UTC+01:00)

Nauka - Pass Details

Date: 06 October 2021
Orbit: 417 x 423 km, 51.6° (Epoch: 24 October)

Event Time Altitude Azimuth Distance (km) Brightness Sun altitude
Rises 20:10:10 0° 290° (WNW) 2,356 ? -18.8°
Reaches altitude 10° 20:12:49 10° 267° (W) 1,489 ? -19.3°
Maximum altitude 20:14:57 16° 228° (SW) 1,176 ? -19.6°
Enters shadow 20:17:00 10° 189° (S) 1,466 ? -20.0°
